{"data":{"norad_id":68459,"epoch":"2026-05-24T20:19:32.602368Z","epoch_age_seconds":82090,"freshness":"FRESH","line1":"1 68459U 26067AV  26144.84690512  .00005287  00000+0  26952-3 0  9993","line2":"2 68459  97.4515 103.5562 0007398 133.1107 227.0746 15.17160589  8391","mean_motion":15.17160589,"eccentricity":0.0007398,"inclination_deg":97.4515,"raan_deg":103.5562,"arg_perigee_deg":133.1107,"mean_anomaly_deg":227.0746,"bstar":0.00026952,"rev_number":839,"period_min":94.914144912579,"perigee_km":509.32786342214,"apogee_km":519.52610109029,"semimajor_km":6892.5639822562,"source":"CELESTRAK","updated_at":"2026-05-25T13:38:07.845213Z"}}